User: anonymous   Login
Location: Mouss�
(47.9236°N, 1.2701°W)
Time: 00:10:44
(UTC+00:00)
Language:

Cosmos 2360 Rocket - Orbit

View from above orbital plane
View from above orbital plane
View from above satellite
View from above satellite

Ground track
Ground track

The orbit data is extracted from the following two-line orbital elements,

1 25407U 98045B   21138.50877172 -.00000254  00000-0 -10506-3 0  9994
2 25407  71.0114 273.4270 0008009 199.1135 160.9689 14.15836976178505
Epoch (UTC): 18 May 2021 12:12:37
Eccentricity: 0.0008009
inclination: 71.0114°
perigee height: 833 km
apogee height: 845 km
right ascension of ascending node: 273.4270°
argument of perigee: 199.1135°
revolutions per day: 14.15836976
mean anomaly at epoch: 160.9689°
orbit number at epoch: 17850

The dashed part of the orbit path shows where the satellite is in the earth's shadow,  

DLR